DM1MT Weather Reports


time (UTC)temp
F
wind
direction
speed
knots
gust
knots
rain 1hr
in
rain 24hr
in
rain mn
in
humidity
%
barometer
mb
20260507024543 49 274 1.7 7.0 0.01 0.02 0.01 94 1016.0
20260507023530 49 0.0 0.0 0.01 0.02 0.01 94 1016.0
20260507022522 49 291 2.6 7.0 0.01 0.02 0.01 94 1016.1
20260507021530 49 290 1.7 7.0 0.01 0.02 0.01 93 1015.8
20260507020522 49 314 1.7 4.3 0.01 0.02 0.01 93 1015.8
20260507015530 49 306 2.6 7.0 0.00 0.01 0.00 92 1015.7
20260507014522 49 301 1.7 7.0 0.00 0.01 0.00 92 1015.6
20260507013530 49 314 1.7 7.0 0.00 0.01 0.00 91 1015.6
20260507012522 50 311 3.5 8.7 0.00 0.01 0.00 91 1015.5
20260507011530 50 290 2.6 7.0 0.00 0.01 0.00 90 1015.6
20260507010522 51 325 4.3 8.7 0.00 0.01 0.00 87 1015.4
20260507005551 51 301 2.6 7.0 0.00 0.01 0.00 85 1015.4
20260507004522 51 320 4.3 8.7 0.00 0.01 0.00 84 1015.4
20260507003530 51 328 2.6 7.0 0.00 0.01 0.00 84 1015.3
20260507002522 51 340 3.5 8.7 0.00 0.01 0.00 84 1015.2
20260507001530 51 320 2.6 7.0 0.00 0.01 0.00 85 1015.4
20260507000522 51 331 3.5 8.7 0.00 0.01 0.00 85 1015.4
20260506235530 51 313 2.6 8.7 0.00 0.01 0.00 85 1015.4
20260506234522 51 324 3.5 8.7 0.00 0.01 0.00 84 1015.3
20260506233530 52 295 3.5 8.7 0.00 0.01 0.00 85 1015.1
20260506232522 52 305 2.6 7.0 0.00 0.01 0.00 85 1015.1
20260506231530 52 320 2.6 8.7 0.00 0.01 0.00 85 1015.0
20260506230522 52 337 2.6 7.0 0.00 0.03 0.00 86 1015.0
20260506225530 52 311 1.7 7.0 0.00 0.03 0.00 86 1014.8
20260506224522 53 306 1.7 7.0 0.00 0.03 0.00 86 1014.7
20260506223530 53 318 1.7 7.0 0.00 0.03 0.00 86 1014.7
20260506222522 53 313 2.6 7.0 0.00 0.03 0.00 87 1014.7
20260506221550 53 337 3.5 7.0 0.00 0.03 0.00 86 1014.7
20260506220522 53 334 2.6 7.0 0.00 0.03 0.00 87 1014.6
20260506215528 53 314 2.6 7.0 0.00 0.03 0.03 86 1014.4
20260506214520 53 319 2.6 8.7 0.00 0.03 0.03 87 1014.4
20260506213528 53 307 2.6 7.0 0.00 0.03 0.03 87 1014.4
20260506212520 53 303 1.7 7.0 0.00 0.03 0.03 87 1014.3
20260506211528 53 266 2.6 7.0 0.00 0.03 0.03 87 1014.3
20260506210520 53 276 0.9 4.3 0.00 0.03 0.03 86 1014.2
20260506205528 53 309 2.6 7.0 0.00 0.03 0.03 86 1014.2
20260506204540 53 300 3.5 7.0 0.00 0.03 0.03 86 1014.1
20260506203528 53 286 3.5 11.3 0.00 0.03 0.03 86 1013.8
20260506202520 53 302 3.5 8.7 0.00 0.03 0.03 87 1013.8
20260506201548 54 308 2.6 7.0 0.00 0.03 0.03 87 1013.7
20260506200519 54 281 3.5 8.7 0.00 0.03 0.03 87 1013.7
20260506195548 54 271 4.3 11.3 0.00 0.03 0.03 88 1013.6
20260506194519 54 271 3.5 7.0 0.00 0.03 0.03 88 1013.3
20260506193528 54 244 1.7 4.3 0.00 0.03 0.03 88 1013.3
20260506190430 54 262 1.7 4.3 0.00 0.03 0.03 88 998.4
20260506185450 55 277 4.3 8.7 0.00 0.03 0.03 88 998.2
20260506184330 55 310 5.2 13.0 0.00 0.03 0.03 88 998.1
20260506183443 55 325 6.1 11.3 0.00 0.03 0.03 87 998.0
20260506182325 55 351 3.5 7.0 0.00 0.03 0.03 88 997.9
20260506181350 55 325 5.2 11.3 0.01 0.03 0.03 88 998.1
20260506180350 55 331 4.3 8.7 0.01 0.03 0.03 89 998.0
20260506175416 55 338 4.3 8.7 0.01 0.03 0.03 89 997.8
20260506174330 56 322 4.3 8.7 0.01 0.03 0.03 90 997.6
20260506173330 57 313 3.5 7.0 0.01 0.03 0.03 89 997.4
20260506172649 57 299 5.2 8.7 0.01 0.03 0.03 88 997.4
20260506171353 57 327 4.3 8.7 0.00 0.02 0.02 87 997.4
20260506170604 58 308 5.2 8.7 0.00 0.02 0.02 87 997.4
20260506165416 58 262 4.3 7.0 0.00 0.02 0.02 87 997.1
20260506164610 59 264 7.8 8.7 0.00 0.02 0.02 86 997.1
20260506163310 60 262 5.2 11.3 0.00 0.04 0.02 83 997.1
20260506162316 60 295 4.3 7.0 0.00 0.04 0.02 76 997.2
20260506161416 60 262 5.2 8.7 0.00 0.04 0.02 76 997.2
20260506160349 61 272 6.1 11.3 0.00 0.04 0.02 76 997.3
20260506155650 62 254 4.3 8.7 0.00 0.04 0.02 73 997.2
20260506154329 62 268 6.1 13.0 0.00 0.04 0.02 72 997.1
20260506153330 62 256 7.0 11.3 0.00 0.04 0.02 70 997.0
20260506152330 63 272 7.0 11.3 0.00 0.04 0.02 69 996.9
20260506151429 63 283 7.8 8.7 0.00 0.05 0.02 68 996.9
20260506150409 64 237 2.6 7.0 0.00 0.07 0.02 66 996.8
20260506145330 64 229 4.3 11.3 0.00 0.08 0.02 65 996.7
20260506144315 65 234 3.5 7.0 0.00 0.12 0.02 65 996.8
20260506143556 65 240 4.3 8.7 0.00 0.25 0.02 64 996.7
20260506142355 66 220 4.3 8.7 0.00 0.33 0.02 61 996.7
20260506141330 66 196 5.2 8.7 0.00 0.35 0.02 62 996.9
20260506140329 66 231 4.3 8.7 0.00 0.35 0.02 62 996.5
20260506135350 66 220 4.3 13.0 0.00 0.35 0.02 59 996.6
20260506134329 66 230 4.3 11.3 0.00 0.35 0.02 60 996.6
20260506133315 66 225 5.2 11.3 0.00 0.35 0.02 60 996.6
20260506132309 65 239 4.3 7.0 0.00 0.35 0.02 61 996.6
20260506131349 65 206 5.2 7.0 0.00 0.35 0.02 63 996.9
20260506130349 65 204 6.1 13.0 0.00 0.35 0.02 62 996.6
20260506125437 64 195 9.6 14.8 0.00 0.35 0.02 63 996.6
20260506124349 64 196 4.3 11.3 0.00 0.35 0.02 64 996.7
20260506123329 64 240 2.6 4.3 0.00 0.35 0.02 65 996.9
20260506122429 64 260 6.1 8.7 0.00 0.35 0.02 64 996.6
20260506121315 64 188 4.3 8.7 0.00 0.35 0.02 64 996.9
20260506120329 64 212 5.2 7.0 0.00 0.35 0.02 65 996.6
20260506115249 63 218 6.1 11.3 0.00 0.35 0.02 64 996.9
20260506114349 63 274 2.6 4.3 0.00 0.35 0.02 65 996.8
20260506113416 63 215 3.5 8.7 0.00 0.35 0.02 66 996.9
20260506112310 63 226 3.5 11.3 0.00 0.35 0.02 67 996.9
20260506111249 63 204 7.0 13.0 0.00 0.35 0.02 66 997.0
20260506110249 63 204 3.5 7.0 0.00 0.35 0.02 68 996.8
20260506105249 64 238 4.3 8.7 0.00 0.35 0.02 66 997.0
20260506104729 64 240 4.3 8.7 0.00 0.35 0.02 65 996.9
20260506103329 63 221 2.6 4.3 0.00 0.35 0.02 66 997.2
20260506102309 63 193 5.2 8.7 0.00 0.35 0.02 65 997.1
20260506101309 63 225 7.8 14.8 0.00 0.35 0.02 65 997.1
20260506100309 62 224 5.2 8.7 0.00 0.35 0.02 68 997.1
20260506095309 61 214 7.0 13.0 0.00 0.35 0.02 70 997.1
20260506094309 61 192 2.6 7.0 0.00 0.35 0.02 73 997.1
20260506093309 61 191 4.3 8.7 0.00 0.35 0.02 74 997.2
20260506092242 61 156 2.6 7.0 0.00 0.35 0.02 74 997.2
20260506091709 61 201 4.3 8.7 0.00 0.35 0.02 73 997.2
20260506090329 61 237 6.1 11.3 0.00 0.35 0.02 72 997.0
20260506084829 62 230 4.3 11.3 0.00 0.35 0.02 71 997.0
20260506083809 62 245 6.1 8.7 0.00 0.35 0.02 72 996.9
20260506082829 61 205 6.1 13.0 0.00 0.35 0.02 71 996.8
20260506081809 60 224 4.3 11.3 0.00 0.35 0.02 75 996.8
20260506081309 59 218 7.0 13.0 0.00 0.35 0.02 78 997.0
20260506072749 58 209 4.3 11.3 0.00 0.35 0.02 86 996.8
20260506071829 58 217 5.2 7.0 0.00 0.35 0.02 87 996.8
20260506070809 58 227 5.2 11.3 0.00 0.35 0.02 88 996.8
20260506061809 56 235 1.7 4.3 0.00 0.35 0.02 94 996.6
20260506060714 55 179 2.6 8.7 0.00 0.35 0.02 95 996.6
20260506050848 55 204 0.9 1.7 0.00 0.35 0.02 97 996.6
20260506044809 54 0.0 0.0 0.00 0.35 0.02 97 996.8
20260506043849 54 219 0.0 1.7 0.00 0.35 0.02 97 996.8
20260506042909 54 225 1.7 4.3 0.00 0.35 0.02 97 996.5
20260506041721 54 215 3.5 4.3 0.00 0.35 0.02 97 996.8
20260506040748 54 224 1.7 7.0 0.00 0.35 0.02 98 996.6
20260506035808 54 227 0.9 4.3 0.00 0.35 0.02 98 996.5
20260506034733 54 221 1.7 4.3 0.00 0.35 0.02 98 996.8
20260506033814 55 226 0.9 4.3 0.00 0.35 0.02 98 996.8
20260506032808 55 221 3.5 7.0 0.00 0.35 0.02 98 996.9
20260506031908 55 0.0 0.0 0.00 0.35 0.02 98 996.8
20260506030835 55 235 0.0 1.7 0.00 0.35 0.02 98 996.8
20260506025828 55 207 1.7 4.3 0.00 0.35 0.02 98 996.8